Year,Month,Day,Hour,Minute,Value (Times are PST for temperature in C)
2015,06,18,00,00,8.60
2015,06,18,00,01,8.60
2015,06,18,00,02,8.60
2015,06,18,00,03,8.60
2015,06,18,00,04,8.60
2015,06,18,00,05,8.60
2015,06,18,00,06,8.60
2015,06,18,00,07,8.60
2015,06,18,00,08,8.60
2015,06,18,00,09,8.60
2015,06,18,00,10,8.60
2015,06,18,00,11,8.60
2015,06,18,00,12,8.60
2015,06,18,00,13,8.60
2015,06,18,00,14,8.60
2015,06,18,00,15,8.60
2015,06,18,00,16,8.60
2015,06,18,00,17,8.60
2015,06,18,00,18,8.60
2015,06,18,00,19,8.60
2015,06,18,00,20,8.60
2015,06,18,00,21,8.60
2015,06,18,00,22,8.60
2015,06,18,00,23,8.60
2015,06,18,00,24,8.60
2015,06,18,00,25,8.60
2015,06,18,00,26,8.60
2015,06,18,00,27,8.60
2015,06,18,00,28,8.60
2015,06,18,00,29,8.60
2015,06,18,00,30,8.60
2015,06,18,00,31,8.60
2015,06,18,00,32,8.50
2015,06,18,00,33,8.50
2015,06,18,00,34,8.50
2015,06,18,00,35,8.50
2015,06,18,00,36,8.50
2015,06,18,00,37,8.50
2015,06,18,00,38,8.50
2015,06,18,00,39,8.50
2015,06,18,00,40,8.50
2015,06,18,00,41,8.30
2015,06,18,00,42,8.30
2015,06,18,00,43,8.30
2015,06,18,00,44,8.30
2015,06,18,00,45,8.30
2015,06,18,00,46,8.30
2015,06,18,00,47,8.30
2015,06,18,00,48,8.30
2015,06,18,00,49,8.30
2015,06,18,00,50,8.30
2015,06,18,00,51,8.10
2015,06,18,00,52,8.10
2015,06,18,00,53,8.10
2015,06,18,00,54,8.10
2015,06,18,00,55,8.10
2015,06,18,00,56,8.10
2015,06,18,00,57,8.10
2015,06,18,00,58,8.10
2015,06,18,00,59,8.10
2015,06,18,01,00,8.10
2015,06,18,01,01,8.10
2015,06,18,01,02,7.70
2015,06,18,01,03,7.70
2015,06,18,01,04,7.70
2015,06,18,01,05,7.70
2015,06,18,01,06,7.70
2015,06,18,01,07,7.70
2015,06,18,01,08,7.70
2015,06,18,01,09,7.70
2015,06,18,01,10,7.70
2015,06,18,01,11,7.60
2015,06,18,01,12,7.60
2015,06,18,01,13,7.60
2015,06,18,01,14,7.60
2015,06,18,01,15,7.60
2015,06,18,01,16,7.60
2015,06,18,01,17,7.60
2015,06,18,01,18,7.60
2015,06,18,01,19,7.60
2015,06,18,01,20,7.60
2015,06,18,01,21,7.60
2015,06,18,01,22,7.60
2015,06,18,01,23,7.60
2015,06,18,01,24,7.60
2015,06,18,01,25,7.60
2015,06,18,01,26,7.60
2015,06,18,01,27,7.60
2015,06,18,01,28,7.60
2015,06,18,01,29,7.60
2015,06,18,01,30,7.60
2015,06,18,01,31,7.60
2015,06,18,01,32,7.60
2015,06,18,01,33,7.60
2015,06,18,01,34,7.60
2015,06,18,01,35,7.60
2015,06,18,01,36,7.60
2015,06,18,01,37,7.60
2015,06,18,01,38,7.60
2015,06,18,01,39,7.60
2015,06,18,01,40,7.60
2015,06,18,01,41,7.40
2015,06,18,01,42,7.40
2015,06,18,01,43,7.40
2015,06,18,01,44,7.40
2015,06,18,01,45,7.40
2015,06,18,01,46,7.40
2015,06,18,01,47,7.40
2015,06,18,01,48,7.40
2015,06,18,01,49,7.40
2015,06,18,01,50,7.40
2015,06,18,01,51,7.40
2015,06,18,01,52,7.40
2015,06,18,01,53,7.10
2015,06,18,01,54,7.10
2015,06,18,01,55,7.10
2015,06,18,01,56,7.10
2015,06,18,01,57,7.10
2015,06,18,01,58,7.10
2015,06,18,01,59,7.10
2015,06,18,02,00,7.10
2015,06,18,02,01,7.10
2015,06,18,02,02,7.10
2015,06,18,02,03,7.10
2015,06,18,02,04,7.10
2015,06,18,02,05,7.10
2015,06,18,02,06,7.10
2015,06,18,02,07,7.10
2015,06,18,02,08,7.10
2015,06,18,02,09,7.10
2015,06,18,02,10,7.10
2015,06,18,02,11,7.10
2015,06,18,02,12,7.10
2015,06,18,02,13,7.10
2015,06,18,02,14,7.10
2015,06,18,02,15,7.10
2015,06,18,02,16,7.10
2015,06,18,02,17,7.10
2015,06,18,02,18,7.10
2015,06,18,02,19,7.10
2015,06,18,02,20,7.10
2015,06,18,02,21,7.20
2015,06,18,02,22,7.20
2015,06,18,02,23,7.20
2015,06,18,02,24,7.20
2015,06,18,02,25,7.20
2015,06,18,02,26,7.20
2015,06,18,02,27,7.20
2015,06,18,02,28,7.20
2015,06,18,02,29,7.20
2015,06,18,02,30,7.20
2015,06,18,02,31,7.40
2015,06,18,02,32,7.40
2015,06,18,02,33,7.40
2015,06,18,02,34,7.40
2015,06,18,02,35,7.40
2015,06,18,02,36,7.40
2015,06,18,02,37,7.40
2015,06,18,02,38,7.40
2015,06,18,02,39,7.40
2015,06,18,02,40,7.40
2015,06,18,02,41,7.40
2015,06,18,02,42,7.20
2015,06,18,02,43,7.20
2015,06,18,02,44,7.20
2015,06,18,02,45,7.20
2015,06,18,02,46,7.20
2015,06,18,02,47,7.20
2015,06,18,02,48,7.20
2015,06,18,02,49,7.20
2015,06,18,02,50,7.20
2015,06,18,02,51,7.20
2015,06,18,02,52,7.10
2015,06,18,02,53,7.10
2015,06,18,02,54,7.10
2015,06,18,02,55,7.10
2015,06,18,02,56,7.10
2015,06,18,02,57,7.10
2015,06,18,02,58,7.10
2015,06,18,02,59,7.10
2015,06,18,03,00,7.10
2015,06,18,03,01,6.90
2015,06,18,03,02,6.90
2015,06,18,03,03,6.90
2015,06,18,03,04,6.90
2015,06,18,03,05,6.90
2015,06,18,03,06,6.90
2015,06,18,03,07,6.90
2015,06,18,03,08,6.90
2015,06,18,03,09,6.90
2015,06,18,03,10,6.90
2015,06,18,03,11,6.90
2015,06,18,03,12,7.10
2015,06,18,03,13,7.10
2015,06,18,03,14,7.10
2015,06,18,03,15,7.10
2015,06,18,03,16,7.10
2015,06,18,03,17,7.10
2015,06,18,03,18,7.10
2015,06,18,03,19,7.10
2015,06,18,03,20,7.10
2015,06,18,03,21,7.10
2015,06,18,03,22,7.10
2015,06,18,03,23,7.20
2015,06,18,03,24,7.20
2015,06,18,03,25,7.20
2015,06,18,03,26,7.20
2015,06,18,03,27,7.20
2015,06,18,03,28,7.20
2015,06,18,03,29,7.20
2015,06,18,03,30,7.20
2015,06,18,03,31,7.30
2015,06,18,03,32,7.30
2015,06,18,03,33,7.30
2015,06,18,03,34,7.30
2015,06,18,03,35,7.30
2015,06,18,03,36,7.30
2015,06,18,03,37,7.30
2015,06,18,03,38,7.30
2015,06,18,03,39,7.30
2015,06,18,03,40,7.30
2015,06,18,03,41,7.50
2015,06,18,03,42,7.50
2015,06,18,03,43,7.50
2015,06,18,03,44,7.50
2015,06,18,03,45,7.50
2015,06,18,03,46,7.50
2015,06,18,03,47,7.50
2015,06,18,03,48,7.50
2015,06,18,03,49,7.50
2015,06,18,03,50,7.50
2015,06,18,03,51,7.90
2015,06,18,03,52,7.90
2015,06,18,03,53,7.90
2015,06,18,03,54,7.90
2015,06,18,03,55,7.90
2015,06,18,03,56,7.90
2015,06,18,03,57,7.90
2015,06,18,03,58,7.90
2015,06,18,03,59,7.90
2015,06,18,04,00,7.90
2015,06,18,04,01,8.20
2015,06,18,04,02,8.20
2015,06,18,04,03,8.20
2015,06,18,04,04,8.20
2015,06,18,04,05,8.20
2015,06,18,04,06,8.20
2015,06,18,04,07,8.20
2015,06,18,04,08,8.20
2015,06,18,04,09,8.20
2015,06,18,04,10,8.20
2015,06,18,04,11,8.20
2015,06,18,04,12,8.30
2015,06,18,04,13,8.30
2015,06,18,04,14,8.30
2015,06,18,04,15,8.30
2015,06,18,04,16,8.30
2015,06,18,04,17,8.30
2015,06,18,04,18,8.30
2015,06,18,04,19,8.30
2015,06,18,04,20,8.30
2015,06,18,04,21,8.40
2015,06,18,04,22,8.40
2015,06,18,04,23,8.40
2015,06,18,04,24,8.40
2015,06,18,04,25,8.40
2015,06,18,04,26,8.40
2015,06,18,04,27,8.40
2015,06,18,04,28,8.40
2015,06,18,04,29,8.40
2015,06,18,04,30,8.40
2015,06,18,04,31,8.60
2015,06,18,04,32,8.60
2015,06,18,04,33,8.60
2015,06,18,04,34,8.60
2015,06,18,04,35,8.60
2015,06,18,04,36,8.60
2015,06,18,04,37,8.60
2015,06,18,04,38,8.60
2015,06,18,04,39,8.60
2015,06,18,04,40,8.60
2015,06,18,04,41,8.60
2015,06,18,04,42,8.30
2015,06,18,04,43,8.30
2015,06,18,04,44,8.30
2015,06,18,04,45,8.30
2015,06,18,04,46,8.30
2015,06,18,04,47,8.30
2015,06,18,04,48,8.30
2015,06,18,04,49,8.30
2015,06,18,04,50,8.30
2015,06,18,04,51,8.30
2015,06,18,04,52,8.20
2015,06,18,04,53,8.20
2015,06,18,04,54,8.20
2015,06,18,04,55,8.20
2015,06,18,04,56,8.20
2015,06,18,04,57,8.20
2015,06,18,04,58,8.20
2015,06,18,04,59,8.20
2015,06,18,05,00,8.20
2015,06,18,05,01,8.20
2015,06,18,05,02,8.20
2015,06,18,05,03,8.20
2015,06,18,05,04,8.20
2015,06,18,05,05,8.20
2015,06,18,05,06,8.20
2015,06,18,05,07,8.20
2015,06,18,05,08,8.20
2015,06,18,05,09,8.20
2015,06,18,05,10,8.20
2015,06,18,05,11,8.20
2015,06,18,05,12,8.40
2015,06,18,05,13,8.40
2015,06,18,05,14,8.40
2015,06,18,05,15,8.40
2015,06,18,05,16,8.40
2015,06,18,05,17,8.40
2015,06,18,05,18,8.40
2015,06,18,05,19,8.40
2015,06,18,05,20,8.40
2015,06,18,05,21,8.40
2015,06,18,05,22,8.50
2015,06,18,05,23,8.50
2015,06,18,05,24,8.50
2015,06,18,05,25,8.50
2015,06,18,05,26,8.50
2015,06,18,05,27,8.50
2015,06,18,05,28,8.50
2015,06,18,05,29,8.50
2015,06,18,05,30,8.50
2015,06,18,05,31,8.50
2015,06,18,05,32,8.70
2015,06,18,05,33,8.70
2015,06,18,05,34,8.70
2015,06,18,05,35,8.70
2015,06,18,05,36,8.70
2015,06,18,05,37,8.70
2015,06,18,05,38,8.70
2015,06,18,05,39,8.70
2015,06,18,05,40,8.70
2015,06,18,05,41,9.60
2015,06,18,05,42,9.60
2015,06,18,05,43,9.60
2015,06,18,05,44,9.60
2015,06,18,05,45,9.60
2015,06,18,05,46,9.60
2015,06,18,05,47,9.60
2015,06,18,05,48,9.60
2015,06,18,05,49,9.60
2015,06,18,05,50,9.60
2015,06,18,05,51,9.60
2015,06,18,05,52,10.00
2015,06,18,05,53,10.00
2015,06,18,05,54,10.00
2015,06,18,05,55,10.00
2015,06,18,05,56,10.00
2015,06,18,05,57,10.00
2015,06,18,05,58,10.00
2015,06,18,05,59,10.00
2015,06,18,06,00,10.00
2015,06,18,06,01,10.00
2015,06,18,06,02,10.00
2015,06,18,06,03,10.00
2015,06,18,06,04,10.00
2015,06,18,06,05,10.00
2015,06,18,06,06,10.00
2015,06,18,06,07,10.00
2015,06,18,06,08,10.00
2015,06,18,06,09,10.00
2015,06,18,06,10,10.00
2015,06,18,06,11,9.20
2015,06,18,06,12,9.20
2015,06,18,06,13,9.20
2015,06,18,06,14,9.20
2015,06,18,06,15,9.20
2015,06,18,06,16,9.20
2015,06,18,06,17,9.20
2015,06,18,06,18,9.20
2015,06,18,06,19,9.20
2015,06,18,06,20,9.20
2015,06,18,06,21,9.20
2015,06,18,06,22,9.30
2015,06,18,06,23,9.30
2015,06,18,06,24,9.30
2015,06,18,06,25,9.30
2015,06,18,06,26,9.30
2015,06,18,06,27,9.30
2015,06,18,06,28,9.30
2015,06,18,06,29,9.30
2015,06,18,06,30,9.30
2015,06,18,06,31,9.30
2015,06,18,06,32,9.40
2015,06,18,06,33,9.40
2015,06,18,06,34,9.40
2015,06,18,06,35,9.40
2015,06,18,06,36,9.40
2015,06,18,06,37,9.40
2015,06,18,06,38,9.40
2015,06,18,06,39,9.40
2015,06,18,06,40,9.40
2015,06,18,06,41,9.40
2015,06,18,06,42,9.40
2015,06,18,06,43,9.40
2015,06,18,06,44,9.40
2015,06,18,06,45,9.40
2015,06,18,06,46,9.40
2015,06,18,06,47,9.40
2015,06,18,06,48,9.40
2015,06,18,06,49,9.40
2015,06,18,06,50,9.40
2015,06,18,06,51,9.40
2015,06,18,06,52,10.20
2015,06,18,06,53,10.20
2015,06,18,06,54,10.20
2015,06,18,06,55,10.20
2015,06,18,06,56,10.20
2015,06,18,06,57,10.20
2015,06,18,06,58,10.20
2015,06,18,06,59,10.20
2015,06,18,07,00,10.20
2015,06,18,07,01,10.30
2015,06,18,07,02,10.30
2015,06,18,07,03,10.30
2015,06,18,07,04,10.30
2015,06,18,07,05,10.30
2015,06,18,07,06,10.30
2015,06,18,07,07,10.30
2015,06,18,07,08,10.30
2015,06,18,07,09,10.30
2015,06,18,07,10,10.30
2015,06,18,07,11,10.50
2015,06,18,07,12,10.50
2015,06,18,07,13,10.50
2015,06,18,07,14,10.50
2015,06,18,07,15,10.50
2015,06,18,07,16,10.50
2015,06,18,07,17,10.50
2015,06,18,07,18,10.50
2015,06,18,07,19,10.50
2015,06,18,07,20,10.50
2015,06,18,07,21,10.50
2015,06,18,07,22,10.50
2015,06,18,07,23,10.50
2015,06,18,07,24,10.50
2015,06,18,07,25,10.50
2015,06,18,07,26,10.50
2015,06,18,07,27,10.50
2015,06,18,07,28,10.50
2015,06,18,07,29,10.50
2015,06,18,07,30,10.50
2015,06,18,07,31,10.50
2015,06,18,07,32,10.50
2015,06,18,07,33,10.50
2015,06,18,07,34,10.50
2015,06,18,07,35,10.50
2015,06,18,07,36,10.50
2015,06,18,07,37,10.50
2015,06,18,07,38,10.50
2015,06,18,07,39,10.50
2015,06,18,07,40,10.50
2015,06,18,07,41,10.60
2015,06,18,07,42,10.60
2015,06,18,07,43,10.60
2015,06,18,07,44,10.60
2015,06,18,07,45,10.60
2015,06,18,07,46,10.60
2015,06,18,07,47,10.60
2015,06,18,07,48,10.60
2015,06,18,07,49,10.60
2015,06,18,07,50,10.60
2015,06,18,07,51,10.60
2015,06,18,07,52,10.60
2015,06,18,07,53,10.60
2015,06,18,07,54,10.70
2015,06,18,07,55,10.70
2015,06,18,07,56,10.70
2015,06,18,07,57,10.70
2015,06,18,07,58,10.70
2015,06,18,07,59,10.70
2015,06,18,08,00,10.70
2015,06,18,08,01,10.70
2015,06,18,08,02,10.70
2015,06,18,08,03,10.70
2015,06,18,08,04,10.70
2015,06,18,08,05,10.70
2015,06,18,08,06,10.70
2015,06,18,08,07,10.70
2015,06,18,08,08,10.70
2015,06,18,08,09,10.70
2015,06,18,08,10,10.70
2015,06,18,08,11,10.70
2015,06,18,08,12,10.80
2015,06,18,08,13,10.80
2015,06,18,08,14,10.80
2015,06,18,08,15,10.80
2015,06,18,08,16,10.80
2015,06,18,08,17,10.80
2015,06,18,08,18,10.80
2015,06,18,08,19,10.80
2015,06,18,08,20,10.80
2015,06,18,08,21,10.80
2015,06,18,08,22,11.10
2015,06,18,08,23,11.10
2015,06,18,08,24,11.10
2015,06,18,08,25,11.10
2015,06,18,08,26,11.10
2015,06,18,08,27,11.10
2015,06,18,08,28,11.10
2015,06,18,08,29,11.10
2015,06,18,08,30,11.10
2015,06,18,08,31,11.10
2015,06,18,08,32,11.10
2015,06,18,08,33,11.10
2015,06,18,08,34,11.10
2015,06,18,08,35,11.10
2015,06,18,08,36,11.10
2015,06,18,08,37,11.10
2015,06,18,08,38,11.10
2015,06,18,08,39,11.10
2015,06,18,08,40,11.10
2015,06,18,08,41,11.10
2015,06,18,08,42,11.10
2015,06,18,08,43,11.10
2015,06,18,08,44,11.10
2015,06,18,08,45,11.10
2015,06,18,08,46,11.10
2015,06,18,08,47,11.10
2015,06,18,08,48,11.10
2015,06,18,08,49,11.10
2015,06,18,08,50,11.10
2015,06,18,08,51,11.10
2015,06,18,08,52,11.10
2015,06,18,08,53,11.10
2015,06,18,08,54,11.10
2015,06,18,08,55,11.10
2015,06,18,08,56,11.10
2015,06,18,08,57,11.10
2015,06,18,08,58,11.10
2015,06,18,08,59,11.10
2015,06,18,09,00,11.10
2015,06,18,09,01,11.10
2015,06,18,09,02,11.10
2015,06,18,09,03,11.10
2015,06,18,09,04,11.10
2015,06,18,09,05,11.10
2015,06,18,09,06,11.10
2015,06,18,09,07,11.10
2015,06,18,09,08,11.10
2015,06,18,09,09,11.10
2015,06,18,09,10,11.10
2015,06,18,09,11,11.10
2015,06,18,09,12,11.10
2015,06,18,09,13,11.10
2015,06,18,09,14,11.10
2015,06,18,09,15,11.10
2015,06,18,09,16,11.10
2015,06,18,09,17,11.10
2015,06,18,09,18,11.10
2015,06,18,09,19,11.10
2015,06,18,09,20,11.10
2015,06,18,09,21,11.10
2015,06,18,09,22,11.10
2015,06,18,09,23,11.20
2015,06,18,09,24,11.20
2015,06,18,09,25,11.20
2015,06,18,09,26,11.20
2015,06,18,09,27,11.20
2015,06,18,09,28,11.20
2015,06,18,09,29,11.20
2015,06,18,09,30,11.20
2015,06,18,09,31,11.40
2015,06,18,09,32,11.40
2015,06,18,09,33,11.40
2015,06,18,09,34,11.40
2015,06,18,09,35,11.40
2015,06,18,09,36,11.40
2015,06,18,09,37,11.40
2015,06,18,09,38,11.40
2015,06,18,09,39,11.40
2015,06,18,09,40,11.40
2015,06,18,09,41,11.40
2015,06,18,09,42,11.40
2015,06,18,09,43,11.70
2015,06,18,09,44,11.70
2015,06,18,09,45,11.70
2015,06,18,09,46,11.70
2015,06,18,09,47,11.70
2015,06,18,09,48,11.70
2015,06,18,09,49,11.70
2015,06,18,09,50,11.70
2015,06,18,09,51,11.80
2015,06,18,09,52,11.80
2015,06,18,09,53,11.80
2015,06,18,09,54,11.80
2015,06,18,09,55,11.80
2015,06,18,09,56,11.80
2015,06,18,09,57,11.80
2015,06,18,09,58,11.80
2015,06,18,09,59,11.80
2015,06,18,10,00,11.80
2015,06,18,10,01,11.80
2015,06,18,10,02,12.10
2015,06,18,10,03,12.10
2015,06,18,10,04,12.10
2015,06,18,10,05,12.10
2015,06,18,10,06,12.10
2015,06,18,10,07,12.10
2015,06,18,10,08,12.10
2015,06,18,10,09,12.10
2015,06,18,10,10,12.10
2015,06,18,10,11,12.10
2015,06,18,10,12,12.30
2015,06,18,10,13,12.30
2015,06,18,10,14,12.30
2015,06,18,10,15,12.30
2015,06,18,10,16,12.30
2015,06,18,10,17,12.30
2015,06,18,10,18,12.30
2015,06,18,10,19,12.30
2015,06,18,10,20,12.30
2015,06,18,10,21,12.30
2015,06,18,10,22,12.20
2015,06,18,10,23,12.20
2015,06,18,10,24,12.20
2015,06,18,10,25,12.20
2015,06,18,10,26,12.20
2015,06,18,10,27,12.20
2015,06,18,10,28,12.20
2015,06,18,10,29,12.20
2015,06,18,10,30,12.20
2015,06,18,10,31,12.20
2015,06,18,10,32,12.20
2015,06,18,10,33,12.20
2015,06,18,10,34,12.20
2015,06,18,10,35,12.20
2015,06,18,10,36,12.20
2015,06,18,10,37,12.20
2015,06,18,10,38,12.20
2015,06,18,10,39,12.20
2015,06,18,10,40,12.20
2015,06,18,10,41,12.10
2015,06,18,10,42,12.10
2015,06,18,10,43,12.10
2015,06,18,10,44,12.10
2015,06,18,10,45,12.10
2015,06,18,10,46,12.10
2015,06,18,10,47,12.10
2015,06,18,10,48,12.10
2015,06,18,10,49,12.10
2015,06,18,10,50,12.10
2015,06,18,10,51,12.10
2015,06,18,10,52,12.10
2015,06,18,10,53,12.10
2015,06,18,10,54,12.10
2015,06,18,10,55,12.10
2015,06,18,10,56,12.10
2015,06,18,10,57,12.10
2015,06,18,10,58,12.10
2015,06,18,10,59,12.10
2015,06,18,11,00,12.10
2015,06,18,11,01,12.10
2015,06,18,11,02,12.10
2015,06,18,11,03,12.10
2015,06,18,11,04,12.10
2015,06,18,11,05,12.10
2015,06,18,11,06,12.10
2015,06,18,11,07,12.10
2015,06,18,11,08,12.10
2015,06,18,11,09,12.10
2015,06,18,11,10,12.10
2015,06,18,11,11,12.60
2015,06,18,11,12,12.60
2015,06,18,11,13,12.60
2015,06,18,11,14,12.60
2015,06,18,11,15,12.60
2015,06,18,11,16,12.60
2015,06,18,11,17,12.60
2015,06,18,11,18,12.60
2015,06,18,11,19,12.60
2015,06,18,11,20,12.60
2015,06,18,11,21,12.60
2015,06,18,11,22,12.60
2015,06,18,11,23,12.70
2015,06,18,11,24,12.70
2015,06,18,11,25,12.70
2015,06,18,11,26,12.70
2015,06,18,11,27,12.70
2015,06,18,11,28,12.70
2015,06,18,11,29,12.70
2015,06,18,11,30,12.70
2015,06,18,11,31,12.70
2015,06,18,11,32,12.70
2015,06,18,11,33,12.70
2015,06,18,11,34,12.70
2015,06,18,11,35,12.70
2015,06,18,11,36,12.70
2015,06,18,11,37,12.70
2015,06,18,11,38,12.70
2015,06,18,11,39,12.70
2015,06,18,11,40,12.70
2015,06,18,11,41,12.70
2015,06,18,11,42,12.60
2015,06,18,11,43,12.60
2015,06,18,11,44,12.60
2015,06,18,11,45,12.60
2015,06,18,11,46,12.60
2015,06,18,11,47,12.60
2015,06,18,11,48,12.60
2015,06,18,11,49,12.60
2015,06,18,11,50,12.60
2015,06,18,11,51,12.60
2015,06,18,11,52,12.90
2015,06,18,11,53,12.90
2015,06,18,11,54,12.90
2015,06,18,11,55,12.90
2015,06,18,11,56,12.90
2015,06,18,11,57,12.90
2015,06,18,11,58,12.90
2015,06,18,11,59,12.90
2015,06,18,12,00,12.90
2015,06,18,12,01,13.00
2015,06,18,12,02,13.00
2015,06,18,12,03,13.00
2015,06,18,12,04,13.00
2015,06,18,12,05,13.00
2015,06,18,12,06,13.00
2015,06,18,12,07,13.00
2015,06,18,12,08,13.00
2015,06,18,12,09,13.00
2015,06,18,12,10,13.00
2015,06,18,12,11,13.00
2015,06,18,12,12,12.90
2015,06,18,12,13,12.90
2015,06,18,12,14,12.90
2015,06,18,12,15,12.90
2015,06,18,12,16,12.90
2015,06,18,12,17,12.90
2015,06,18,12,18,12.90
2015,06,18,12,19,12.90
2015,06,18,12,20,12.90
2015,06,18,12,21,12.90
2015,06,18,12,22,12.90
2015,06,18,12,23,13.10
2015,06,18,12,24,13.10
2015,06,18,12,25,13.10
2015,06,18,12,26,13.10
2015,06,18,12,27,13.10
2015,06,18,12,28,13.10
2015,06,18,12,29,13.10
2015,06,18,12,30,13.10
2015,06,18,12,31,13.10
2015,06,18,12,32,13.20
2015,06,18,12,33,13.20
2015,06,18,12,34,13.20
2015,06,18,12,35,13.20
2015,06,18,12,36,13.20
2015,06,18,12,37,13.20
2015,06,18,12,38,13.20
2015,06,18,12,39,13.20
2015,06,18,12,40,13.20
2015,06,18,12,41,13.20
2015,06,18,12,42,13.20
2015,06,18,12,43,12.90
2015,06,18,12,44,12.90
2015,06,18,12,45,12.90
2015,06,18,12,46,12.90
2015,06,18,12,47,12.90
2015,06,18,12,48,12.90
2015,06,18,12,49,12.90
2015,06,18,12,50,12.90
2015,06,18,12,51,12.90
2015,06,18,12,52,12.90
2015,06,18,12,53,12.70
2015,06,18,12,54,12.70
2015,06,18,12,55,12.70
2015,06,18,12,56,12.70
2015,06,18,12,57,12.70
2015,06,18,12,58,12.70
2015,06,18,12,59,12.70
2015,06,18,13,00,12.70
2015,06,18,13,01,11.70
2015,06,18,13,02,11.70
2015,06,18,13,03,11.70
2015,06,18,13,04,11.70
2015,06,18,13,05,11.70
2015,06,18,13,06,11.70
2015,06,18,13,07,11.70
2015,06,18,13,08,11.70
2015,06,18,13,09,11.70
2015,06,18,13,10,11.70
2015,06,18,13,11,11.70
2015,06,18,13,12,11.70
2015,06,18,13,13,11.70
2015,06,18,13,14,11.70
2015,06,18,13,15,11.70
2015,06,18,13,16,11.70
2015,06,18,13,17,11.70
2015,06,18,13,18,11.70
2015,06,18,13,19,11.70
2015,06,18,13,20,11.70
2015,06,18,13,21,11.70
2015,06,18,13,22,11.70
2015,06,18,13,23,11.70
2015,06,18,13,24,11.70
2015,06,18,13,25,11.70
2015,06,18,13,26,11.70
2015,06,18,13,27,11.70
2015,06,18,13,28,11.70
2015,06,18,13,29,11.70
2015,06,18,13,30,11.70
2015,06,18,13,31,11.50
2015,06,18,13,32,11.50
2015,06,18,13,33,11.50
2015,06,18,13,34,11.50
2015,06,18,13,35,11.50
2015,06,18,13,36,11.50
2015,06,18,13,37,11.50
2015,06,18,13,38,11.50
2015,06,18,13,39,11.50
2015,06,18,13,40,11.50
2015,06,18,13,41,12.00
2015,06,18,13,42,12.00
2015,06,18,13,43,12.00
2015,06,18,13,44,12.00
2015,06,18,13,45,12.00
2015,06,18,13,46,12.00
2015,06,18,13,47,12.00
2015,06,18,13,48,12.00
2015,06,18,13,49,12.00
2015,06,18,13,50,12.00
2015,06,18,13,51,12.20
2015,06,18,13,52,12.20
2015,06,18,13,53,12.20
2015,06,18,13,54,12.20
2015,06,18,13,55,12.20
2015,06,18,13,56,12.20
2015,06,18,13,57,12.20
2015,06,18,13,58,12.20
2015,06,18,13,59,12.20
2015,06,18,14,00,12.20
2015,06,18,14,01,12.20
2015,06,18,14,02,12.20
2015,06,18,14,03,12.50
2015,06,18,14,04,12.50
2015,06,18,14,05,12.50
2015,06,18,14,06,12.50
2015,06,18,14,07,12.50
2015,06,18,14,08,12.50
2015,06,18,14,09,12.50
2015,06,18,14,10,12.50
2015,06,18,14,11,12.20
2015,06,18,14,12,12.20
2015,06,18,14,13,12.20
2015,06,18,14,14,12.20
2015,06,18,14,15,12.20
2015,06,18,14,16,12.20
2015,06,18,14,17,12.20
2015,06,18,14,18,12.20
2015,06,18,14,19,12.20
2015,06,18,14,20,12.20
2015,06,18,14,21,12.20
2015,06,18,14,22,12.20
2015,06,18,14,23,11.70
2015,06,18,14,24,11.70
2015,06,18,14,25,11.70
2015,06,18,14,26,11.70
2015,06,18,14,27,11.70
2015,06,18,14,28,11.70
2015,06,18,14,29,11.70
2015,06,18,14,30,11.70
2015,06,18,14,31,11.70
2015,06,18,14,32,11.70
2015,06,18,14,33,11.70
2015,06,18,14,34,11.70
2015,06,18,14,35,11.70
2015,06,18,14,36,11.70
2015,06,18,14,37,11.70
2015,06,18,14,38,11.70
2015,06,18,14,39,11.70
2015,06,18,14,40,11.70
2015,06,18,14,41,11.70
2015,06,18,14,42,11.70
2015,06,18,14,43,11.70
2015,06,18,14,44,11.70
2015,06,18,14,45,11.70
2015,06,18,14,46,11.70
2015,06,18,14,47,11.70
2015,06,18,14,48,11.70
2015,06,18,14,49,11.70
2015,06,18,14,50,11.70
2015,06,18,14,51,11.70
2015,06,18,14,52,11.80
2015,06,18,14,53,11.80
2015,06,18,14,54,11.80
2015,06,18,14,55,11.80
2015,06,18,14,56,11.80
2015,06,18,14,57,11.80
2015,06,18,14,58,11.80
2015,06,18,14,59,11.80
2015,06,18,15,00,11.80
2015,06,18,15,01,11.40
2015,06,18,15,02,11.40
2015,06,18,15,03,11.40
2015,06,18,15,04,11.40
2015,06,18,15,05,11.40
2015,06,18,15,06,11.40
2015,06,18,15,07,11.40
2015,06,18,15,08,11.40
2015,06,18,15,09,11.40
2015,06,18,15,10,11.40
2015,06,18,15,11,11.40
2015,06,18,15,12,11.40
2015,06,18,15,13,11.40
2015,06,18,15,14,11.40
2015,06,18,15,15,11.40
2015,06,18,15,16,11.40
2015,06,18,15,17,11.40
2015,06,18,15,18,11.40
2015,06,18,15,19,11.40
2015,06,18,15,20,11.40
2015,06,18,15,21,11.40
2015,06,18,15,22,11.40
2015,06,18,15,23,11.40
2015,06,18,15,24,11.40
2015,06,18,15,25,11.40
2015,06,18,15,26,11.40
2015,06,18,15,27,11.40
2015,06,18,15,28,11.40
2015,06,18,15,29,11.40
2015,06,18,15,30,11.40
2015,06,18,15,31,11.40
2015,06,18,15,32,10.30
2015,06,18,15,33,10.30
2015,06,18,15,34,10.30
2015,06,18,15,35,10.30
2015,06,18,15,36,10.30
2015,06,18,15,37,10.30
2015,06,18,15,38,10.30
2015,06,18,15,39,10.30
2015,06,18,15,40,10.30
2015,06,18,15,41,10.30
2015,06,18,15,42,10.30
2015,06,18,15,43,10.30
2015,06,18,15,44,10.30
2015,06,18,15,45,10.30
2015,06,18,15,46,10.30
2015,06,18,15,47,10.30
2015,06,18,15,48,10.30
2015,06,18,15,49,10.30
2015,06,18,15,50,10.30
2015,06,18,15,51,10.30
2015,06,18,15,52,10.60
2015,06,18,15,53,10.60
2015,06,18,15,54,10.60
2015,06,18,15,55,10.60
2015,06,18,15,56,10.60
2015,06,18,15,57,10.60
2015,06,18,15,58,10.60
2015,06,18,15,59,10.60
2015,06,18,16,00,10.60
2015,06,18,16,01,10.60
2015,06,18,16,02,10.70
2015,06,18,16,03,10.70
2015,06,18,16,04,10.70
2015,06,18,16,05,10.70
2015,06,18,16,06,10.70
2015,06,18,16,07,10.70
2015,06,18,16,08,10.70
2015,06,18,16,09,10.70
2015,06,18,16,10,10.70
2015,06,18,16,11,10.70
2015,06,18,16,12,10.70
2015,06,18,16,13,10.70
2015,06,18,16,14,10.70
2015,06,18,16,15,10.70
2015,06,18,16,16,10.70
2015,06,18,16,17,10.70
2015,06,18,16,18,10.70
2015,06,18,16,19,10.70
2015,06,18,16,20,10.70
2015,06,18,16,21,10.70
2015,06,18,16,22,10.60
2015,06,18,16,23,10.60
2015,06,18,16,24,10.60
2015,06,18,16,25,10.60
2015,06,18,16,26,10.60
2015,06,18,16,27,10.60
2015,06,18,16,28,10.60
2015,06,18,16,29,10.60
2015,06,18,16,30,10.60
2015,06,18,16,31,10.60
2015,06,18,16,32,10.70
2015,06,18,16,33,10.70
2015,06,18,16,34,10.70
2015,06,18,16,35,10.70
2015,06,18,16,36,10.70
2015,06,18,16,37,10.70
2015,06,18,16,38,10.70
2015,06,18,16,39,10.70
2015,06,18,16,40,10.70
2015,06,18,16,41,10.50
2015,06,18,16,42,10.50
2015,06,18,16,43,10.50
2015,06,18,16,44,10.50
2015,06,18,16,45,10.50
2015,06,18,16,46,10.50
2015,06,18,16,47,10.50
2015,06,18,16,48,10.50
2015,06,18,16,49,10.50
2015,06,18,16,50,10.50
2015,06,18,16,51,10.40
2015,06,18,16,52,10.40
2015,06,18,16,53,10.40
2015,06,18,16,54,10.40
2015,06,18,16,55,10.40
2015,06,18,16,56,10.40
2015,06,18,16,57,10.40
2015,06,18,16,58,10.40
2015,06,18,16,59,10.40
2015,06,18,17,00,10.40
2015,06,18,17,01,10.50
2015,06,18,17,02,10.50
2015,06,18,17,03,10.50
2015,06,18,17,04,10.50
2015,06,18,17,05,10.50
2015,06,18,17,06,10.50
2015,06,18,17,07,10.50
2015,06,18,17,08,10.50
2015,06,18,17,09,10.50
2015,06,18,17,10,10.50
2015,06,18,17,11,10.50
2015,06,18,17,12,10.60
2015,06,18,17,13,10.60
2015,06,18,17,14,10.60
2015,06,18,17,15,10.60
2015,06,18,17,16,10.60
2015,06,18,17,17,10.60
2015,06,18,17,18,10.60
2015,06,18,17,19,10.60
2015,06,18,17,20,10.60
2015,06,18,17,21,10.60
2015,06,18,17,22,10.60
2015,06,18,17,23,10.90
2015,06,18,17,24,10.90
2015,06,18,17,25,10.90
2015,06,18,17,26,10.90
2015,06,18,17,27,10.90
2015,06,18,17,28,10.90
2015,06,18,17,29,10.90
2015,06,18,17,30,10.90
2015,06,18,17,31,10.90
2015,06,18,17,32,10.80
2015,06,18,17,33,10.80
2015,06,18,17,34,10.80
2015,06,18,17,35,10.80
2015,06,18,17,36,10.80